Regional Weather Roundup
Issued by NWS Columbia, SC

Home | Current Version | Previous Version | Text Only | Print | Product List | Glossary On
Versions: 1 2 3 4 5 6 7 8 9 10 11 12 13 14 15 16 17 18 19 20 21 22 23 24 25 26 27 28 29 30 31 32 33 34 35 36 37 38 39 40 41 42 43 44 45 46 47 48 49 50
000
ASUS42 KCAE 150010
RWRCAE
REGIONAL WEATHER ROUNDUP
NATIONAL WEATHER SERVICE COLUMBIA SC
700 PM EST SUN FEB 14 2016

NOTE: "FAIR" INDICATES FEW OR NO CLOUDS BELOW 12,000 FEET WITH NO
SIGNIFICANT WEATHER AND/OR OBSTRUCTIONS TO VISIBILITY.

NOT ALL STATIONS ARE QUALITY CONTROLLED BY THE NATIONAL
WEATHER SERVICE. USE DATA WITH CAUTION...ESPECIALLY
DEWPOINT OBSERVATIONS.

SCZ001>056-GAZ040-063>065-077-150100-
...UPSTATE SOUTH CAROLINA...

CITY           SKY/WX    TMP DP  RH WIND       PRES   REMARKS
ANDERSON       CLOUDY    32   4  30 NE12      30.35R WCI  23
6HR MIN TEMP:  32; 6HR MAX TEMP:  37;

LIBERTY        CLOUDY    31   5  34 NE9       30.34R WCI  22
6HR MIN TEMP:  13; 6HR MAX TEMP:  85;

SPARTANBURG    CLOUDY    30   1  29 NE5       30.36S WCI  25
CLEMSON        CLOUDY    33   5  30 E7        30.35R WCI  27
6HR MIN TEMP:  33; 6HR MAX TEMP:  36;

GREENVILLE     CLOUDY    29   3  33 NE9       30.35S WCI  20
6HR MIN TEMP:  29; 6HR MAX TEMP:  32;

GREENWOOD      CLOUDY    35   5  28 NE6       30.36S WCI  30
6HR MIN TEMP:  35; 6HR MAX TEMP:  39; 6HR PCP: TRACE;

GREER          CLOUDY    28   3  34 NE8       30.35S WCI  20
6HR MIN TEMP:  28; 6HR MAX TEMP:  31;

ROCK HILL      CLOUDY    29   2  31 E3        30.39S
6HR MIN TEMP:  27; 6HR MAX TEMP:  30;

CHESTER        CLOUDY    30   1  29 E6        30.39S WCI  24
LAURENS        CLOUDY    32   5  32 NE8       30.36S WCI  25


...CENTRAL SOUTH CAROLINA...

CITY           SKY/WX    TMP DP  RH WIND       PRES   REMARKS
COLUMBIA APT   CLOUDY    38   7  27 NE9       30.38S WCI  31
6HR MIN TEMP:  37; 6HR MAX TEMP:  40;

COLUMBIA OWENS CLOUDY    37   7  28 E7        30.40S WCI  32
6HR MIN TEMP:  36; 6HR MAX TEMP:  40;

MCENTIRE ANGB  CLOUDY    36   8  31 NE5       30.39S WCI  32
6HR MIN TEMP:  36; 6HR MAX TEMP:  38;

ORANGEBURG     CLOUDY    40  11  30 E8        30.37F WCI  34
6HR MIN TEMP:  36; 6HR MAX TEMP:  42;

SUMTER SHAW    CLOUDY    36   9  32 NE8       30.37F WCI  29
6HR MIN TEMP:  34; 6HR MAX TEMP:  38;

NEWBERRY       CLOUDY    36   5  27 E6        30.39S WCI  31
AIKEN          CLOUDY    37  14  38 E5        30.37S WCI  34
BARNWELL       CLOUDY    43  18  36 CALM      30.36S
MANNING        CLOUDY    36  12  38 E7        30.41R WCI  30
CAMDEN         CLOUDY    32  32 100 CALM      30.41S
LANCASTER      CLOUDY    32   0  25 E6        30.40F WCI  26
WINNSBORO      CLOUDY    34   7  32 E7        30.37F WCI  28


...EASTERN AND COASTAL SOUTH CAROLINA...

CITY           SKY/WX    TMP DP  RH WIND       PRES   REMARKS
MYRTLE BEACH   MOCLDY    36  16  44 E12       30.46R WCI  27
N MYRTLE BCH   CLOUDY    34  14  43 E13       30.44S WCI  25
6HR MIN TEMP:  34; 6HR MAX TEMP:  37;

CONWAY         CLOUDY    34  18  51 E5        30.44R WCI  30
MARION         FAIR      32  10  40 E6        30.44S WCI  26
HARTSVILLE     CLOUDY    30   9  40 NE6       30.41S WCI  24
FLORENCE       CLOUDY    32   8  36 E9        30.42F WCI  24
6HR MIN TEMP:  31; 6HR MAX TEMP:  35;

DARLINGTON     MOCLDY    30  10  43 NE6       30.44S WCI  24
6HR MIN TEMP:  30; 6HR MAX TEMP:  34;

CHARLESTON APT CLOUDY    38  26  62 E10       30.39S WCI  31
6HR MIN TEMP:  37; 6HR MAX TEMP:  44;

MOUNT PLEASANT CLOUDY    37  30  75 N8        30.40S WCI  31
WALTERBORO     CLOUDY    41  27  56 E8        30.39S
BEAUFORT       CLOUDY    40  30  67 E9        30.36F WCI  34
6HR MIN TEMP:  40; 6HR MAX TEMP:  45;



...EASTERN GEORGIA...

CITY           SKY/WX    TMP DP  RH WIND       PRES   REMARKS
AUGUSTA BUSH F CLOUDY    42  17  36 E9        30.34S
6HR MIN TEMP:  42; 6HR MAX TEMP:  46;

AUGUSTA DANIEL CLOUDY    42  14  32 E9        30.33S
6HR MIN TEMP:  40; 6HR MAX TEMP:  46;

THOMSON        CLOUDY    44  22  42 E6        30.35S
6HR MIN TEMP:  42; 6HR MAX TEMP:  48;

WASHINGTON     FAIR      43  23  45 CALM      30.31R
CLAXTON        CLOUDY    44  36  72 E5        30.33F
6HR MIN TEMP:  44; 6HR MAX TEMP:  50;

SYLVANIA       CLOUDY    44  32  62 SE3       30.35S
6HR MIN TEMP:  44; 6HR MAX TEMP:  49;

STATESBORO     CLOUDY    47  27  45 E8        30.34R
6HR MIN TEMP:  47; 6HR MAX TEMP:  53;

SAVANNAH       CLOUDY    42  31  64 E12       30.34F
6HR MIN TEMP:  42; 6HR MAX TEMP:  46;



...SOUTHERN NORTH CAROLINA...

CITY           SKY/WX    TMP DP  RH WIND       PRES   REMARKS
CHARLOTTE      CLOUDY    29  -2  26 E6        30.39F WCI  23
6HR MIN TEMP:  27; 6HR MAX TEMP:  29;

MONROE         CLOUDY    29   3  33 E3        30.38F
6HR MIN TEMP:  26; 6HR MAX TEMP:  31;

WADESBORO      CLOUDY    31  -3  22 E8        30.43S WCI  24
6HR MIN TEMP:  29; 6HR MAX TEMP:  32;

ROCKINGHAM     CLOUDY    30   4  33 E3        30.44R
6HR MIN TEMP:  28; 6HR MAX TEMP:  31;

RUTHERFORDTON  CLOUDY    25   3  38 SE3       30.38S
6HR MIN TEMP:  24; 6HR MAX TEMP:  25;

ASHEVILLE      CLOUDY    21   3  45 SE13      30.26S WCI   9
6HR MIN TEMP:  21; 6HR MAX TEMP:  23;


$$



USA.gov is the U.S. government's official web portal to all federal, state and local government web resources and services.